Temperature
21 21 21 21 21 21 20 20 19 20 20 20 20 19 19 19 18 18 17 17 16 15 15 15 14 14 13 13 13 13 13 13 12 12 12 12 12 12 12 12 12 12 12 12
20 21 21 20 20 20 20 20 20 20 19 20 20 20 19 18 18 17 17 16 15 15 14 14 14 13 13 13 13 13 12 12 12 12 12 12 12 12 12 12 12 12 12 11
19 20 20 19 20 20 20 20 20 19 19 20 19 19 19 18 17 17 16 15 15 15 14 14 14 13 13 13 13 12 12 12 12 12 12 12 12 12 12 12 12 12 12 11
19 19 18 19 21 21 20 20 20 20 19 19 19 19 18 18 17 17 16 15 15 14 14 14 13 13 13 13 12 12 12 12 12 11 11 11 11 11 11 11 11 11 11 11
18 18 18 19 20 20 19 19 20 19 19 19 18 18 18 17 17 16 16 15 15 14 14 14 13 13 13 12 12 12 11 11 11 11 11 11 11 11 11 11 11 11 11 11
18 17 17 18 19 20 19 18 19 19 18 18 17 16 16 17 16 16 15 15 14 14 13 13 13 12 12 12 12 11 11 11 11 10 10 10 10 10 10 10 10 10 10 10
17 17 18 18 19 19 17 17 18 18 18 17 17 16 16 16 15 15 15 14 14 13 13 13 12 12 12 12 11 11 11 10 10 10 10 10 10 10 10 10 10 10 10 10
17 16 16 18 18 17 17 18 17 17 17 16 16 16 15 15 15 14 14 14 13 13 13 12 12 12 11 11 11 11 10 10 10 10 10 10 10 9 9 9 9 9 9 9
17 17 17 17 17 17 17 17 16 16 16 15 15 15 14 14 14 14 13 13 13 12 12 12 11 11 11 11 11 10 10 10 9 9 9 9 9 9 9 9 9 9 9 8
16 17 17 17 17 16 16 16 16 15 15 15 14 14 14 13 13 13 12 12 12 11 11 11 11 11 11 10 10 10 10 9 9 9 9 9 9 9 9 9 8 8 8 8
16 16 16 16 16 16 15 15 15 15 14 14 14 13 13 13 12 12 12 11 11 11 11 11 10 10 10 10 10 10 9 9 9 8 8 8 8 8 8 8 8 8 8 8
15 16 15 15 15 15 15 14 14 14 14 13 13 13 13 12 12 12 11 11 11 10 10 10 10 10 10 9 9 9 9 9 8 8 8 8 8 8 8 8 8 8 8 8
15 15 15 14 14 14 14 14 14 13 13 13 12 12 12 12 11 11 11 10 10 10 10 10 10 9 9 9 9 9 9 8 8 8 8 8 7 7 7 7 7 7 7 7
14 13 13 14 13 13 13 13 13 13 13 12 12 12 11 11 11 11 10 10 10 9 9 9 9 9 9 9 9 8 8 8 8 8 8 7 7 7 7 7 7 7 7 7
13 13 13 13 13 12 12 12 12 12 12 12 11 11 11 10 10 10 10 9 9 9 9 9 9 8 8 8 8 8 8 8 7 7 7 7 7 7 6 6 6 6 6 6
12 12 12 12 12 12 12 12 11 11 11 11 11 11 10 10 10 9 9 9 8 8 8 8 8 8 8 8 8 7 7 7 7 7 7 6 6 6 6 6 6 6 6 6
11 11 11 11 11 11 11 11 11 11 10 10 10 10 10 9 9 9 9 8 8 8 8 8 8 8 8 7 7 7 7 7 7 6 6 6 6 6 5 5 5 5 5 5
10 10 10 10 10 10 10 10 10 10 10 10 10 9 9 9 9 8 8 8 8 7 7 7 7 7 7 7 7 7 6 6 6 6 6 6 6 5 5 5 5 5 5 5
10 10 9 9 9 9 9 9 9 9 9 9 9 9 9 9 8 8 8 7 7 7 7 7 7 6 6 6 6 6 6 6 6 6 6 5 5 5 5 5 5 4 4 4
9 9 9 9 9 9 9 9 9 9 9 8 8 8 8 8 8 7 7 7 7 7 7 6 6 6 6 6 6 6 5 5 5 5 5 5 5 5 5 4 4 4 4 4
8 8 8 8 8 8 8 8 8 8 8 8 8 8 7 7 7 7 7 6 6 6 6 6 6 5 5 5 5 5 5 5 5 5 5 5 4 4 4 4 4 4 3 3
8 8 8 7 7 7 7 8 8 8 7 7 7 7 7 7 6 6 6 6 6 6 6 6 5 5 5 5 5 5 4 4 4 4 4 4 4 4 4 3 3 3 3 3
7 7 7 7 7 7 7 7 7 7 7 7 6 6 6 6 6 6 6 6 5 5 5 5 5 5 5 4 4 4 4 4 4 4 4 4 3 3 3 3 3 3 3 3
7 7 7 7 6 6 6 6 6 6 6 6 6 6 6 5 5 5 5 5 5 5 5 5 4 4 4 4 4 4 4 3 3 3 3 3 3 3 3 3 3 2 2 2
7 7 6 6 6 6 6 6 6 6 6 6 5 5 5 5 5 5 4 4 4 4 4 4 4 4 4 4 3 3 3 3 3 3 2 2 3 3 2 2 2 2 2 2
6 6 6 6 6 6 5 5 5 5 5 5 5 5 4 4 4 4 4 4 4 4 4 4 4 3 3 3 3 3 3 3 2 2 2 2 2 2 2 2 2 2 2 2
5 5 5 5 5 5 5 5 5 4 4 4 4 4 4 4 4 4 4 4 3 3 3 3 3 3 3 3 3 2 2 2 2 2 2 2 2 2 2 2 2 2 2 2
Wind_Speed
12 11 10 9 10 10 10 10 9 8 7 5 4 2 1 1 2 4 4 5 5 4 4 4 4 4 4 4 3 3 2 2 2 2 1 2 2 2 2 1 1 1 2 2
13 12 11 12 11 11 11 11 11 10 8 6 4 2 1 1 2 3 3 3 4 4 4 4 4 4 4 4 3 3 3 3 2 2 1 2 1 2 2 1 1 2 2 2
11 10 11 12 10 9 8 9 9 9 7 5 4 4 2 2 3 3 3 2 3 4 4 4 4 4 5 4 3 3 2 2 2 2 2 2 2 2 2 2 1 1 2 2
9 10 12 5 2 5 7 8 6 5 4 4 4 4 2 1 2 3 3 2 3 3 3 4 4 3 3 4 3 3 2 2 2 2 2 1 1 2 2 2 2 2 2 2
7 9 10 6 3 3 6 7 4 4 3 3 4 4 2 2 1 1 2 3 3 3 2 3 4 4 3 3 3 2 2 2 2 2 2 2 2 2 2 1 2 2 2 2
8 9 9 3 1 3 5 6 2 3 3 3 3 4 3 1 1 1 1 2 3 3 2 2 3 4 4 3 3 3 2 2 2 2 2 2 2 2 2 2 2 2 2 2
10 10 6 1 1 1 3 2 3 2 2 3 3 3 2 2 2 1 1 2 3 3 2 2 3 3 3 3 2 2 1 1 1 2 2 2 2 2 2 2 2 3 3 2
7 9 6 1 0 1 2 3 4 4 3 3 2 3 2 2 2 0 1 1 2 3 2 1 2 3 3 2 2 1 1 1 1 1 1 1 1 1 1 2 3 3 3 2
5 4 2 1 1 2 3 3 4 4 3 3 3 3 2 2 2 0 1 1 1 2 3 2 3 3 3 2 2 2 2 1 2 2 1 1 2 1 1 2 2 3 3 3
7 4 3 2 2 3 4 4 4 4 4 3 2 3 2 1 1 0 0 0 1 2 2 2 2 2 3 2 2 3 3 2 2 2 1 1 1 1 1 1 2 2 3 3
9 6 5 4 3 3 3 4 4 4 3 3 2 2 2 1 0 0 1 1 1 2 2 2 2 2 2 3 3 3 3 3 2 2 2 1 1 1 1 1 2 2 2 2
6 5 5 5 4 4 4 4 3 3 3 3 2 3 2 2 1 1 1 2 2 1 2 2 2 2 2 3 3 3 3 2 2 1 1 1 1 1 1 1 2 2 3 3
7 6 5 5 5 4 4 4 4 3 3 3 2 2 2 2 1 1 1 2 2 2 2 2 2 2 2 2 2 3 2 2 2 1 1 1 1 1 1 2 3 3 3 3
5 5 7 6 4 4 5 5 4 4 3 2 2 2 2 2 1 1 2 2 2 2 2 2 2 2 1 1 1 1 1 1 1 1 1 1 1 1 1 1 2 2 3 4
7 7 7 6 5 5 4 4 4 4 3 2 2 2 2 2 1 1 1 1 2 2 2 2 2 1 0 1 1 0 1 1 1 1 1 1 1 1 1 2 2 2 1 2
7 6 6 6 6 5 5 5 5 4 3 3 2 2 2 2 2 1 1 1 2 3 3 2 1 1 1 1 1 1 0 1 1 1 1 1 1 1 1 1 2 2 1 1
6 6 6 6 6 5 5 5 5 4 3 3 3 2 1 1 1 1 1 1 2 2 1 1 1 1 1 0 0 0 1 1 1 1 1 1 1 1 2 2 2 2 2 1
7 6 6 6 5 5 4 4 4 4 4 3 2 2 2 2 2 2 2 1 1 1 1 1 1 1 1 0 0 0 0 1 1 1 1 2 2 2 2 2 2 2 2 2
6 6 5 6 5 5 4 4 4 3 3 2 2 3 3 3 2 2 1 2 2 1 1 1 1 1 1 0 1 0 0 1 1 1 1 2 2 2 2 2 2 2 2 2
4 4 4 4 4 4 4 3 3 3 2 2 2 2 3 3 2 2 2 2 2 2 1 1 2 1 1 1 0 1 1 1 1 1 1 2 2 2 2 2 2 2 2 2
3 3 3 3 4 4 4 4 3 2 2 2 3 3 3 2 2 2 2 2 1 2 2 1 1 1 1 0 0 1 1 1 1 1 2 2 2 2 2 2 2 2 2 2
3 3 3 3 3 4 3 3 3 3 3 2 3 2 2 2 2 2 2 2 2 2 2 2 2 0 1 1 1 1 1 1 1 2 2 2 2 3 3 3 3 2 2 2
3 3 3 3 3 3 3 3 3 2 3 3 3 2 2 2 2 2 2 1 2 2 2 2 1 0 1 0 1 1 1 2 2 2 2 2 2 3 3 3 3 3 2 2
3 3 3 3 3 3 3 3 2 2 2 2 2 2 2 1 1 1 1 2 2 2 1 1 2 1 1 1 1 1 2 2 2 2 2 2 2 2 2 3 3 3 3 3
4 3 3 2 3 2 3 2 1 1 1 1 1 1 1 1 1 1 1 1 1 1 1 1 1 2 1 2 2 2 2 2 2 2 2 2 2 3 3 3 3 3 3 3
4 3 3 2 2 2 1 1 1 1 1 1 0 1 1 1 1 1 1 2 2 1 1 1 2 2 2 2 2 2 1 2 2 2 2 2 3 3 3 3 3 3 3 2
3 3 2 2 1 1 1 1 1 1 1 0 0 0 1 1 1 1 2 2 2 2 1 1 2 2 2 1 2 2 2 2 2 2 2 3 3 3 3 3 3 3 2 2
Wind_Direction
277 280 281 270 262 254 253 259 265 275 277 283 294 297 258 137 140 132 132 145 148 153 159 162 161 163 165 165 160 163 172 174 194 196 192 195 185 180 191 194 191 176 155 155
275 270 267 266 262 255 254 259 265 272 277 292 312 328 277 175 165 155 153 155 158 162 158 167 174 179 172 168 170 173 186 189 188 180 184 198 192 183 178 186 202 174 161 164
274 275 269 259 254 248 252 256 262 267 276 305 310 306 285 204 182 176 175 181 174 176 178 180 185 185 177 170 166 177 190 188 182 183 191 206 208 188 189 191 195 191 180 172
272 273 262 257 270 262 259 255 263 271 298 309 308 306 289 195 171 166 166 182 192 183 188 184 176 168 166 166 167 178 188 193 189 180 186 206 223 215 213 194 185 204 199 189
262 268 266 256 260 278 270 261 266 275 290 317 325 309 312 25 83 130 176 185 194 177 187 191 174 170 170 174 168 172 184 198 190 187 188 198 221 213 209 201 209 207 197 183
257 263 266 274 359 319 290 262 297 295 293 303 306 286 284 356 50 129 156 170 167 165 180 190 173 168 174 173 175 184 190 199 191 192 191 209 216 217 205 203 211 198 207 208
254 258 261 326 8 304 259 301 359 328 308 305 282 294 312 342 348 7 142 157 158 163 172 179 168 160 174 172 186 196 177 177 187 198 200 202 203 213 203 206 208 204 205 207
246 250 252 71 337 276 316 349 358 356 343 328 334 355 349 344 336 66 129 139 150 158 157 164 170 163 175 184 181 151 140 160 185 213 220 205 193 230 216 207 210 208 212 216
252 255 337 47 335 346 360 348 350 348 346 360 352 338 324 325 311 168 128 142 148 160 158 173 170 166 181 188 169 173 170 181 198 211 225 207 194 219 224 218 220 211 205 215
268 261 289 294 321 354 348 340 339 347 345 344 321 315 318 320 341 39 117 144 150 163 168 183 181 177 177 176 184 183 181 186 198 204 222 237 235 232 231 216 236 240 216 216
268 269 277 271 294 312 322 319 328 334 330 327 317 303 306 306 304 225 168 172 184 188 197 202 183 184 179 179 192 192 187 185 201 214 206 201 209 243 253 256 237 252 252 234
264 274 281 282 288 292 290 291 297 304 315 324 324 309 301 284 226 218 193 189 206 202 208 214 195 192 188 188 195 201 190 186 196 201 209 195 198 254 311 282 289 279 268 260
287 303 299 295 301 309 309 304 292 282 287 300 317 319 313 298 248 221 208 200 212 212 210 209 195 190 192 200 206 207 194 192 196 195 210 212 208 217 279 314 294 287 288 281
294 300 287 287 291 296 293 297 302 301 295 300 317 321 317 307 279 223 214 212 211 208 208 202 192 194 187 199 219 207 184 191 200 191 205 221 222 225 231 261 297 304 293 276
285 283 282 290 289 287 288 289 285 287 284 285 293 303 303 288 261 250 236 214 208 211 209 198 187 170 113 214 228 222 184 174 186 201 216 221 216 234 249 253 267 287 311 307
278 279 276 272 270 274 279 279 273 276 278 275 266 265 278 278 265 258 230 193 200 210 203 189 183 175 184 222 211 206 217 224 208 197 215 228 215 221 256 270 271 270 269 268
269 266 265 268 270 272 272 273 271 273 272 266 257 247 254 264 250 233 238 205 203 198 179 177 177 171 149 128 151 199 193 216 261 231 214 222 227 237 248 256 262 269 267 241
262 271 273 274 274 272 272 278 278 274 269 260 249 230 228 228 224 224 233 208 192 149 145 155 134 119 126 141 74 309 234 228 224 221 229 232 234 238 247 254 261 264 277 271
264 270 274 278 281 279 276 274 277 279 286 272 238 225 220 219 212 206 224 203 191 201 197 147 98 110 173 179 32 142 270 269 262 257 249 264 267 257 253 253 259 261 258 257
290 296 293 286 282 281 281 287 289 284 285 287 268 239 227 219 200 192 198 205 203 190 174 158 158 183 189 176 39 187 219 247 267 281 279 270 262 254 251 256 258 259 254 251
281 283 286 289 285 278 276 280 284 282 283 264 251 248 237 223 199 190 197 216 200 129 138 151 162 184 195 307 293 243 226 239 247 258 268 266 267 270 270 267 263 258 254 255
268 270 277 278 283 289 281 270 264 256 258 254 247 243 233 221 215 208 205 203 190 149 155 176 179 185 349 353 248 252 243 253 261 263 264 267 266 266 269 271 268 264 254 249
267 270 275 279 276 286 290 274 261 248 243 243 239 230 220 217 207 203 216 197 156 162 169 183 205 225 345 242 251 260 252 254 266 270 269 268 268 266 263 264 266 264 260 253
285 273 272 279 280 274 276 275 271 261 246 238 232 210 196 203 219 221 187 159 163 183 194 195 192 197 208 222 235 251 252 258 265 267 269 275 275 276 270 266 265 266 263 258
291 279 264 257 264 266 266 272 270 278 245 210 205 180 173 174 193 217 186 157 168 173 192 217 230 217 215 232 234 247 251 260 274 281 275 279 280 279 277 273 265 261 260 260
288 285 273 254 251 260 266 278 280 272 253 216 184 145 150 151 167 168 161 164 174 214 219 198 209 214 228 239 237 240 246 269 281 281 281 281 278 279 281 283 280 268 259 253
283 281 275 263 259 257 248 245 259 278 294 267 221 182 161 159 162 172 166 164 172 195 212 210 213 215 230 247 253 250 254 257 258 264 275 280 279 277 274 274 276 275 270 262
Height
1484 1481 1481 1483 1484 1484 1487 1487 1492 1488 1486 1482 1481 1481 1481 1482 1483 1484 1486 1487 1489 1491 1493 1494 1496 1497 1498 1499 1499 1500 1500 1500 1501 1501 1502 1503 1504 1505 1506 1507 1508 1509 1510 1511
1485 1479 1479 1481 1480 1480 1482 1482 1482 1483 1483 1478 1479 1480 1481 1482 1483 1484 1485 1486 1487 1489 1490 1492 1494 1495 1496 1496 1497 1498 1498 1498 1499 1499 1500 1501 1501 1502 1503 1504 1505 1506 1507 1507
1488 1479 1479 1483 1476 1476 1478 1477 1479 1482 1481 1478 1478 1479 1480 1480 1481 1482 1484 1485 1486 1487 1488 1489 1491 1492 1493 1493 1494 1495 1495 1496 1496 1496 1497 1498 1498 1499 1500 1501 1502 1503 1504 1504
1486 1485 1492 1479 1469 1470 1473 1473 1473 1475 1476 1476 1477 1477 1478 1478 1479 1480 1482 1483 1484 1484 1486 1487 1488 1489 1490 1491 1491 1492 1493 1493 1493 1494 1494 1495 1495 1496 1496 1497 1498 1499 1500 1501
1488 1489 1481 1474 1470 1471 1473 1473 1472 1473 1474 1475 1476 1476 1476 1477 1477 1478 1480 1480 1481 1482 1483 1484 1485 1486 1487 1488 1489 1490 1490 1490 1490 1491 1491 1491 1491 1492 1493 1494 1494 1495 1496 1497
1485 1490 1488 1476 1470 1469 1472 1475 1471 1472 1473 1474 1475 1478 1477 1476 1476 1476 1477 1478 1479 1480 1481 1482 1483 1484 1485 1486 1486 1487 1487 1488 1488 1488 1488 1488 1488 1489 1489 1490 1491 1492 1492 1493
1484 1483 1476 1471 1470 1470 1480 1479 1471 1471 1472 1473 1474 1475 1475 1474 1474 1474 1475 1475 1476 1477 1478 1479 1480 1481 1482 1483 1483 1484 1485 1485 1485 1485 1486 1485 1485 1486 1486 1487 1488 1488 1489 1490
1479 1483 1481 1470 1469 1473 1475 1472 1471 1471 1472 1472 1472 1473 1473 1473 1472 1472 1472 1473 1474 1474 1475 1477 1478 1478 1479 1480 1481 1481 1482 1482 1482 1483 1483 1482 1482 1482 1483 1483 1484 1484 1485 1486
1475 1475 1470 1470 1470 1471 1471 1471 1471 1471 1471 1471 1471 1471 1472 1472 1471 1471 1471 1471 1471 1472 1472 1474 1474 1475 1476 1477 1478 1478 1479 1479 1479 1480 1480 1479 1479 1479 1479 1480 1480 1480 1481 1482
1469 1467 1468 1469 1469 1470 1470 1471 1470 1470 1470 1470 1470 1470 1470 1470 1470 1469 1469 1469 1469 1470 1470 1471 1472 1473 1474 1474 1475 1475 1476 1476 1476 1477 1477 1476 1476 1476 1476 1476 1476 1476 1477 1478
1468 1467 1467 1467 1468 1469 1469 1469 1469 1469 1469 1469 1468 1468 1468 1468 1468 1468 1468 1468 1468 1468 1468 1469 1469 1470 1471 1472 1472 1473 1473 1474 1474 1474 1474 1474 1473 1474 1473 1473 1473 1473 1473 1474
1468 1466 1466 1466 1466 1466 1467 1467 1467 1467 1467 1467 1467 1466 1466 1466 1466 1466 1466 1466 1466 1466 1466 1466 1467 1468 1468 1469 1469 1470 1470 1471 1471 1471 1471 1471 1470 1470 1470 1470 1470 1470 1470 1471
1465 1464 1464 1464 1464 1464 1464 1464 1465 1465 1465 1465 1465 1464 1464 1464 1464 1463 1463 1463 1463 1463 1464 1464 1465 1465 1466 1466 1466 1467 1467 1468 1468 1468 1468 1468 1467 1467 1466 1467 1467 1467 1466 1466
1463 1462 1462 1462 1462 1462 1462 1462 1462 1462 1462 1462 1462 1462 1462 1461 1461 1461 1460 1460 1461 1461 1461 1462 1462 1462 1462 1463 1463 1464 1464 1465 1465 1464 1465 1465 1464 1464 1463 1463 1462 1462 1462 1462
1461 1460 1460 1459 1459 1459 1459 1459 1459 1459 1459 1459 1459 1459 1459 1458 1458 1458 1458 1458 1458 1458 1459 1459 1459 1459 1460 1460 1460 1460 1461 1461 1461 1461 1462 1462 1462 1461 1461 1460 1460 1459 1458 1458
1458 1457 1457 1456 1456 1456 1456 1456 1456 1456 1456 1456 1456 1456 1456 1456 1455 1455 1455 1455 1455 1455 1455 1456 1456 1456 1457 1457 1457 1458 1458 1458 1459 1459 1459 1459 1459 1458 1458 1457 1457 1456 1455 1455
1454 1454 1453 1453 1453 1453 1453 1453 1453 1453 1453 1453 1453 1453 1453 1452 1452 1452 1452 1452 1453 1453 1453 1453 1453 1454 1454 1454 1454 1455 1455 1455 1456 1456 1455 1455 1456 1455 1455 1454 1454 1453 1452 1452
1451 1451 1451 1450 1450 1449 1450 1450 1450 1450 1449 1449 1449 1449 1449 1449 1449 1449 1449 1449 1450 1450 1451 1451 1451 1451 1452 1452 1452 1452 1452 1452 1452 1452 1452 1452 1452 1452 1452 1451 1451 1450 1449 1449
1447 1447 1447 1447 1446 1446 1446 1446 1446 1446 1446 1446 1446 1445 1445 1445 1446 1446 1446 1447 1447 1447 1448 1448 1448 1449 1449 1449 1449 1449 1449 1449 1449 1449 1449 1450 1449 1449 1448 1448 1447 1447 1446 1445
1444 1443 1443 1443 1443 1443 1443 1443 1443 1443 1442 1442 1442 1442 1442 1442 1443 1443 1443 1443 1443 1444 1445 1445 1446 1446 1446 1446 1447 1446 1446 1446 1446 1446 1446 1446 1446 1445 1445 1444 1444 1443 1442 1442
1441 1440 1440 1440 1440 1440 1440 1439 1439 1439 1439 1439 1439 1439 1439 1440 1440 1440 1440 1441 1441 1442 1442 1442 1443 1443 1443 1443 1443 1443 1443 1443 1443 1443 1443 1442 1442 1441 1441 1440 1440 1439 1438 1438
1438 1438 1438 1437 1437 1436 1436 1436 1436 1436 1436 1436 1436 1436 1436 1436 1437 1437 1438 1438 1438 1439 1439 1439 1439 1440 1440 1440 1440 1440 1440 1440 1440 1439 1439 1438 1438 1437 1437 1436 1436 1435 1434 1433
1436 1435 1435 1435 1434 1433 1433 1433 1433 1432 1432 1432 1432 1433 1433 1433 1433 1434 1434 1435 1435 1435 1436 1436 1436 1436 1437 1437 1437 1437 1437 1437 1436 1435 1435 1435 1434 1434 1433 1432 1431 1431 1429 1429
1433 1432 1432 1432 1431 1431 1430 1430 1430 1429 1429 1429 1429 1430 1430 1430 1431 1431 1431 1432 1432 1432 1432 1433 1433 1434 1434 1434 1434 1433 1433 1433 1432 1432 1431 1431 1430 1429 1428 1428 1427 1426 1425 1424
1430 1430 1429 1429 1428 1428 1427 1427 1427 1426 1426 1426 1427 1427 1427 1428 1428 1428 1428 1428 1429 1429 1429 1429 1430 1430 1430 1430 1430 1430 1430 1429 1429 1428 1428 1427 1426 1425 1424 1423 1423 1422 1421 1420
1428 1427 1426 1426 1426 1425 1425 1424 1424 1423 1423 1424 1424 1424 1424 1425 1425 1425 1425 1425 1426 1426 1426 1426 1426 1427 1427 1427 1427 1427 1426 1426 1425 1425 1424 1423 1422 1421 1420 1419 1418 1418 1417 1416
1425 1424 1424 1423 1423 1422 1422 1422 1422 1421 1421 1421 1421 1421 1421 1422 1422 1422 1422 1422 1422 1422 1422 1423 1423 1423 1423 1423 1423 1423 1423 1422 1421 1421 1420 1419 1418 1417 1416 1415 1414 1413 1412 1411